GW5517 Weather Reports


time (UTC)temp
C
wind
direction
speed
KPH
gust
KPH
rain 1hr
cm
rain 24hr
cm
rain mn
cm
humidity
%
barometer
mb
20260506134536 21 0 3.2 12.9 0.00 0.00 0.00 75 1013.4
20260506133037 21 196 1.6 16.1 0.00 0.00 0.00 75 1013.4
20260506131546 21 103 1.6 9.7 0.00 0.00 0.00 76 1013.3
20260506130043 21 207 3.2 9.7 0.00 0.00 0.00 77 1013.2
20260506124543 20 157 3.2 11.3 0.00 0.00 0.00 78 1013.2
20260506123040 20 144 1.6 9.7 0.00 0.00 0.00 79 1013.3
20260506121541 20 236 1.6 17.7 0.00 0.00 0.00 80 1013.6
20260506120055 19 97 1.6 11.3 0.00 0.00 0.00 80 1013.5
20260506114553 19 59 1.6 8.0 0.00 0.00 0.00 81 1013.5
20260506113044 18 64 0.0 12.9 0.00 0.00 0.00 82 1013.8
20260506111543 18 131 3.2 9.7 0.00 0.00 0.00 82 1013.6
20260506110054 17 0 1.6 8.0 0.00 0.00 0.00 83 1013.6
20260506104535 17 75 0.0 4.8 0.00 0.00 0.00 85 1013.3
20260506103044 16 236 0.0 3.2 0.00 0.00 0.00 85 1013.5
20260506101544 16 0 1.6 6.4 0.00 0.00 0.00 85 1013.5
20260506100045 16 0 0.0 6.4 0.00 0.00 0.00 84 1013.4
20260506094554 16 196 1.6 4.8 0.00 0.00 0.00 83 1013.0
20260506093036 16 80 3.2 9.7 0.00 0.00 0.00 83 1013.2
20260506091542 17 0 1.6 6.4 0.00 0.00 0.00 83 1013.5
20260506090042 17 0 1.6 8.0 0.00 0.00 0.00 82 1013.5
20260506084546 17 180 0.0 11.3 0.00 0.00 0.00 83 1013.6
20260506083041 16 146 1.6 6.4 0.00 0.00 0.00 84 1013.7
20260506081540 16 0 0.0 4.8 0.00 0.00 0.00 83 1013.8
20260506073051 16 101 1.6 4.8 0.00 0.00 0.00 83 1013.4
20260506071544 16 0 0.0 3.2 0.00 0.00 0.00 82 1013.6
20260506061544 17 120 0.0 3.2 0.00 0.00 0.00 81 1013.9
20260506044546 18 0 1.6 6.4 0.00 0.00 0.00 75 1014.7
20260506043039 18 162 0.0 4.8 0.00 0.00 0.00 75 1014.7
20260506041541 18 94 3.2 9.7 0.00 0.00 0.00 74 1014.9
20260506040058 18 88 1.6 11.3 0.00 0.00 0.00 73 1014.9
20260506034549 18 134 0.0 9.7 0.00 0.00 0.00 73 1014.7
20260506033042 19 5 1.6 6.4 0.00 0.00 0.00 73 1014.8
20260506031553 19 0 0.0 9.7 0.00 0.00 0.00 72 1014.8
20260506030045 19 130 3.2 11.3 0.00 0.00 0.00 71 1014.7
20260506024543 20 97 3.2 12.9 0.00 0.00 0.00 70 1014.6
20260506023044 20 360 3.2 9.7 0.00 0.00 0.00 70 1014.6
20260506021539 20 149 4.8 16.1 0.00 0.00 0.00 67 1014.6
20260506020034 20 196 1.6 14.5 0.00 0.00 0.00 69 1014.6
20260506014543 20 221 3.2 11.3 0.00 0.00 0.00 70 1014.4
20260506013045 21 78 3.2 8.0 0.00 0.00 0.00 69 1014.4
20260506011548 21 118 1.6 11.3 0.00 0.00 0.00 69 1014.1
20260506010042 21 130 3.2 16.1 0.00 0.00 0.00 67 1013.8
20260506004548 21 134 3.2 11.3 0.00 0.00 0.00 68 1013.7
20260506003042 22 124 3.2 11.3 0.00 0.00 0.00 66 1013.6
20260506001541 22 94 1.6 9.7 0.00 0.00 0.00 65 1013.5
20260506000039 22 40 4.8 16.1 0.00 0.00 0.00 62 1013.4
20260505234556 23 63 3.2 14.5 0.00 0.00 0.00 63 1013.2
20260505233044 23 68 3.2 12.9 0.00 0.00 0.00 62 1013.0
20260505231547 23 43 3.2 12.9 0.00 0.00 0.00 60 1013.0
20260505230040 24 95 3.2 9.7 0.00 0.00 0.00 60 1012.7
20260505224547 24 111 3.2 16.1 0.00 0.00 0.00 59 1012.8
20260505223051 25 9 6.4 12.9 0.00 0.00 0.00 57 1012.7
20260505221546 25 49 3.2 17.7 0.00 0.00 0.00 56 1012.7
20260505220042 25 112 8.0 17.7 0.00 0.00 0.00 53 1012.7
20260505214550 26 78 1.6 6.4 0.00 0.00 0.00 52 1012.7
20260505213046 26 218 1.6 9.7 0.00 0.00 0.00 50 1012.3
20260505211541 26 82 1.6 8.0 0.00 0.00 0.00 48 1012.4
20260505210042 26 150 3.2 11.3 0.00 0.00 0.00 48 1012.5
20260505204540 27 90 3.2 12.9 0.00 0.00 0.00 46 1012.4
20260505203037 27 211 3.2 19.3 0.00 0.00 0.00 45 1012.4
20260505201536 27 54 1.6 19.3 0.00 0.00 0.00 46 1012.7
20260505200041 27 77 4.8 12.9 0.00 0.00 0.00 46 1013.1
20260505194600 26 49 3.2 14.5 0.00 0.00 0.00 45 1013.4
20260505193044 26 218 3.2 12.9 0.00 0.00 0.00 47 1013.6
20260505191544 26 57 1.6 24.1 0.00 0.00 0.00 46 1013.9
20260505190040 26 18 3.2 14.5 0.00 0.00 0.00 49 1014.1
20260505184546 26 160 4.8 19.3 0.00 0.00 0.00 45 1014.3
20260505183044 26 101 3.2 16.1 0.00 0.00 0.00 47 1014.3
20260505181549 26 63 3.2 12.9 0.00 0.00 0.00 46 1014.4
20260505180044 25 117 4.8 12.9 0.00 0.00 0.00 45 1014.5
20260505174541 25 316 3.2 16.1 0.00 0.00 0.00 48 1014.5
20260505173046 25 121 6.4 17.7 0.00 0.00 0.00 48 1014.5
20260505171543 25 95 6.4 12.9 0.00 0.00 0.00 50 1014.8
20260505170040 25 170 4.8 11.3 0.00 0.00 0.00 49 1014.8
20260505164545 25 0 1.6 11.3 0.00 0.00 0.00 50 1015.2
20260505163048 25 98 3.2 17.7 0.00 0.00 0.00 52 1015.3
20260505161545 24 350 1.6 12.9 0.00 0.00 0.00 53 1015.3
20260505153041 23 360 3.2 12.9 0.00 0.00 0.00 57 1015.7
20260505151537 23 360 3.2 11.3 0.00 0.00 0.00 57 1015.6